Погода в Житомире

Погода в Житомире : погода сейчас, прогноз погоды и архив. Всё, что Вы хотите узнать о погоде в Житомире!

Хотите узнать прогноз погоды в Житомире? Тогда Вам сюда: Погода в Житомире

Поиск расширенной информации на нашем сайте:

Другие новости

Новости СМИ2

Главная страница сайта

Новости сайта

03.07.2017

Напоминаем, что на нашем специализированном сайте Метеоцентр.Азия вы можете получить высокодетализированные автоматические прогнозы погоды по пунктам России, СНГ и мира в авиационном формате (включающие направление и скорость ветра, видимость, явления погоды, количество и форму облачности, нижнюю и верхнюю границу облачности).


Погода в Житомире - сегодня

Время (UTC), дата Ветер
(°,м/с) 
Видим.   Явления Облачность Т
(°С)
Тd
(°С)
f(%) Тe
(°С)
Pmin
(гПа)
dP
(гПа)
Po
(мм)
O2
(г/м3)
Тmin Tmax R s Состояние
почвы
15 13.12.17 тихо ()   4000 м  слаб. снег{дождь}  10/9 120 м средняя 
[Frnb|As op]
+0.7 -0.1 94 +1  1016.5  -0.4  742  298           
18 13.12.17 тихо ()   4000 м  слаб. снег{дождь}  10/9 150 м средняя 
[Frnb|As op]
+0.5 -0.3 94 +1  1015.9  -0.6  741  298    +7.5     
21 13.12.17 тихо ()   4000 м  в посл. час снег  10/10 180 м 
[St]
+0.4 -0.4 94 1014.5  -1.4  740  298           
00 14.12.17 тихо ()   0500 м  туман{снег}  ?/?  
+0.2 +0.2 100 1012.6  -1.8  739  297      0.9     
03 14.12.17 тихо ()   0500 м  туман  ?/?  
+0.3 +0.3 100 1011.3  -1.3  738  297           
06 14.12.17 230 (ЮЗ) 4000 м  дымка{туман}  10/10 120 м 
[St]
+0.6 -0.2 94 +1  1009.5  -1.7  737  296  +0.2    0.9  мокрый или
старый снег
50-90% 
09 14.12.17 180 (Ю) 10 км  дымка  10/10 360 м 
[St]
+1.2 -0.2 90 +1  1008  -1.4  736  295           
12 14.12.17 200 (Ю) 4000 м  дымка  10/10 300 м 
[St]
+1.1 -0.3 90 1006.3  -1.7  734  295           
15 14.12.17 180 (Ю) 4000 м  дымка  10/10 180 м 
[St]
+1 +0.2 94 -1  1005.9  -0.4  734  295           
18 14.12.17 190 (Ю) 4000 м  дымка  10/10 240 м 
[St]
+1 -0.1 92 -1  1006.1  0.2  734  295    +1.5       
21 14.12.17 220 (ЮЗ) 4000 м  дымка  10/10 210 м 
[St]
+1.3 +0.2 92 +1  1006.7  0.6  735  295           
00 15.12.17 210 (ЮЗ) 4000 м  дымка  ясно 
+0.6 +0.1 96 1006.4  -0.3  735  295           
06 15.12.17 240 (ЮЗ) 0200 м  переохл. туман [диам. гололёда 1 мм]  ?/?  
-0.6 -0.6 100 1007.9  736  297  -0.8         
09 15.12.17 160 (Ю) 0500 м  туман  ?/?  
+0 +0 100 -2  1008.4  0.6  736  296           
12 15.12.17 160 (Ю) 4000 м  дымка{туман}  10/10 180 м 
[St]
+1.8 +1 94 1006.9  -1.3  735  294           
15 15.12.17 160 (Ю) 4000 м  дымка  10/10 180 м 
[St]
+2.4 +1.6 94 +1  1006  -0.8  734  293           
18 15.12.17 170 (Ю) 4000 м  дымка  10/10 180 м 
[St]
+3 +1.7 91 +2  1005.7  -0.3  734  292    +3       
21 15.12.17 160 (Ю) 4000 м  дымка  10/10 240 м 
[St]
+3.8 +2.6 92 +3  1004.9  -0.7  734  291           
00 16.12.17 170 (Ю) 4000 м  дымка  10/10 180 м 
[St]
+3.8 +3.1 95 +3  1003.8  -1  733  291           
03 16.12.17 160 (Ю) 1000 м  дымка{туман}  10/10 240 м 
[St]
+4.2 +3.2 93 +4  1001.4  -2.3  731  290           
06 16.12.17 170 (Ю) 4000 м  дымка{туман}  10/10 180 м 
[St]
+3.4 +2.7 95 +1  1000  -1.5  730  290  +2.5         
09 16.12.17 170 (Ю) 4000 м  в посл. час туман{морось}  10/10 180 м 
[St]
+5.5 +5.3 99 +5  997.8  -1.9  729  287           
12 16.12.17 190 (Ю) 4000 м  дымка{ливн. осадки, морось}  10/4 300 м средняя, верхняя 
[St|Ac As|Ci fib]
+7.1 +5.8 91 +8  997  -0.6  728  285      0.7     
15 16.12.17 260 (З) 4000 м  слаб. ливневой дождь  10/9 300 м кучево-дожд., средняя 
[Cb cap|As op]
+6.4 +4.8 89 +6  998.9  1.7  729  286           
18 16.12.17 260 (З) 10 км  {ливн. осадки}  10/10 360 м 
[St]
+4.8 +2.4 84 +4  1002.3  3.2  732  289    +7.1     
Время (UTC), дата Ветер
(°,м/с) 
Видим.   Явления Облачность Т
(°С)
Тd
(°С)
f(%) Тe
(°С)
Pmin
(гПа)
dP
(гПа)
Po
(мм)
O2
(г/м3)
Тmin Tmax R s Состояние
почвы

Для получения пояснительной информации подведите курсор к названию столбца.

ПОГОДА в Житомире - архив

Всё, что Вы хотите узнать о погоде в Житомире - удобно и подробно!

Выберите нужную дату (начиная с 1 января 2015* года) и нажмите кнопку "Найти".
Будут отображены архивные сводки погоды по пункту Житомир, начиная с указанной даты.


Отображать данные в формате CSV (для использования в таблицах Excel)


Внимание! Наш архив погоды предназначен исключительно для личного некоммерческого использования в познавательных целях. Если Вам необходимы официальные справки о состоянии погоды (для производственных, юридических, коммерческих и т.п. целей), обращайтесь в органы Росгидромета.

*Примечание: данная дата относится к архиву по метеостанциям СССР (Россия, СНГ, Балтия).
Архив по метеостанциям Зарубежной Европы и Азии (кроме Китая) хранится 10 дней, по другим регионам земного шара (Китай, Африка, Америка, Австралия, Океания) - 1 день.

Житомир - район местоположения метеостанции


Название, широта, долгота, высота метеостанции:
Житомир 50.2°ш. 28.7°д. 224 м над ур. моря [Украина]

Дополнительная информация

В oтличие oт бoльшинства пoгoдных сайтoв мы публикуем пoдрoбную метеoинфoрмацию в детальнoм прoфессиoнальнoм фoрмате.

Характеристики температуры и влажнoсти вoздуха измеряются на высoте 2 м в тени вдали oт зданий и деревьев.
Скoрoсть ветра измеряется на высoте 10 м (на урoвне рoста челoвека скoрoсть ветра ниже в 1.5-2 раза). Если метеoстанция нахoдится в гoрoде или в лесу, тo скoрoсть ветра занижена на 2-4 м/с пo сравнению с oткрытым местoм. Скoрoсть ветра над акватoриями крупных рек и oзёр, а также на вершинах хoлмoв на 2-5 м/с выше, чем в oбычных услoвиях.
Атмoсфернoе давление в разных тoчках местнoсти мoжет значительнo oтличаться oт давления на метеoстанции, в зависимoсти oт услoвий рельефа (при пoдъёме на 10 м давление пoнижается примернo на 1 мм рт.ст.).